Weather History for Prince Rupert, BC

Change the Weather History Date:

Sunday, December 16, 2012

  Actual Average Record
Temperature  
Mean Temperature 34 °F -  
Max Temperature 35 °F 40 °F 50 °F (2004)
Min Temperature 32 °F 32 °F 19 °F (2008)
Degree Days  
Heating Degree Days 32    
Moisture  
Dew Point 33 °F    
Average Humidity 98    
Maximum Humidity 100    
Minimum Humidity 93    
Precipitation  
Precipitation 0.00 in - - ()
Sea Level Pressure  
Sea Level Pressure 29.32 in    
Wind  
Wind Speed 10 mph ()    
Max Wind Speed 17 mph    
Max Gust Speed 28 mph    
Visibility 6.6 miles    
Events Rain , Snow    
Averages and records for this station are not official NWS values.
T = Trace of Precipitation, MM = Missing Value Source: Averaged Metar Reports

Daily Weather History Graph

Daily Weather History Graph

Search for Another Location

Airport:

Trip Planner

Search our weather history database for the weather conditions in past years. The results will help you decide how hot, cold, wet, or windy it might be!

Date:

Astronomy

Dec. 16, 2012 Rise Set
Actual Time 8:57 AM PST 4:17 PM PST
Civil Twilight 8:13 AM PST 5:02 PM PST
Nautical Twilight 7:26 AM PST 5:48 PM PST
Astronomical Twilight 6:43 AM PST 6:32 PM PST
Moon 11:04 AM PST (12/16) 9:14 PM PST (12/16)
Length of Visible Light 8h 48m
Length of Day
7h 20m
Waxing Crescent, 17% of the Moon is Illuminated
Dec 16
Waxing Crescent
Dec 19
First Quarter
Dec 28
Full
Jan 4
Last Quarter
Jan 11
New

Hourly Weather History & Observations

Time (PST) Temp. Windchill Dew Point Humidity Pressure Visibility Wind Dir Wind Speed Gust Speed Precip Events Conditions
12:00 AM 33.8 °F 25.3 °F 33.8 °F 100% 29.34 in 9.0 mi SE 11.5 mph - N/A   Mostly Cloudy
1:00 AM 35.6 °F 27.5 °F 33.8 °F 93% 29.34 in 9.0 mi SE 11.5 mph - N/A   Overcast
1:56 AM 33.8 °F 25.3 °F 32.0 °F 93% 29.34 in 9.0 mi SE 11.5 mph - N/A   Scattered Clouds
2:00 AM 33.8 °F 26.4 °F 32.0 °F 93% 29.34 in 9.0 mi SE 9.2 mph - N/A   Scattered Clouds
2:18 AM 35.6 °F 28.0 °F 33.8 °F 93% 29.34 in 9.0 mi SE 10.4 mph - N/A Rain Light Rain
2:31 AM 33.8 °F 25.8 °F 33.8 °F 100% 29.35 in 6.0 mi SSE 10.4 mph - N/A Rain Light Rain
2:32 AM 33.8 °F 27.0 °F 33.8 °F 100% 29.35 in 4.0 mi SSE 8.1 mph - N/A Rain Light Rain
2:34 AM 33.8 °F 27.0 °F 33.8 °F 100% 29.35 in 3.0 mi SSE 8.1 mph - N/A Rain Light Rain
2:36 AM 33.8 °F 26.4 °F 33.8 °F 100% 29.35 in 3.0 mi SE 9.2 mph - N/A Rain , Snow Light Snow
2:37 AM 33.8 °F 25.8 °F 33.8 °F 100% 29.35 in 3.0 mi SE 10.4 mph - N/A Rain , Snow Light Snow
2:39 AM 33.8 °F 26.4 °F 33.8 °F 100% 29.35 in 3.0 mi SE 9.2 mph - N/A Snow Light Snow
2:43 AM 33.8 °F 27.0 °F 33.8 °F 100% 29.34 in 5.0 mi ESE 8.1 mph - N/A Snow Light Snow
2:46 AM 33.8 °F 27.0 °F 33.8 °F 100% 29.34 in 6.0 mi ESE 8.1 mph - N/A Snow Light Snow
2:56 AM 33.8 °F 27.7 °F 33.8 °F 100% 29.34 in 9.0 mi East 6.9 mph - N/A Snow Light Snow
2:57 AM 33.8 °F 27.7 °F 33.8 °F 100% 29.34 in 9.0 mi East 6.9 mph - N/A   Mostly Cloudy
3:00 AM 33.8 °F 27.0 °F 33.8 °F 100% 29.34 in 9.0 mi ESE 8.1 mph - N/A Rain Light Rain
3:03 AM 33.8 °F 27.0 °F 33.8 °F 100% 29.34 in 9.0 mi ESE 8.1 mph - N/A Rain Light Rain
3:08 AM 33.8 °F 26.4 °F 33.8 °F 100% 29.34 in 6.0 mi SE 9.2 mph - N/A   Mostly Cloudy
3:11 AM 33.8 °F 25.8 °F 33.8 °F 100% 29.34 in 6.0 mi SE 10.4 mph - N/A   Overcast
3:12 AM 33.8 °F 25.8 °F 33.8 °F 100% 29.34 in 6.0 mi ESE 10.4 mph - N/A   Overcast
3:16 AM 33.8 °F 26.4 °F 33.8 °F 100% 29.34 in 8.0 mi ESE 9.2 mph - N/A Rain Light Rain
3:26 AM 33.8 °F 25.8 °F 33.8 °F 100% 29.34 in 9.0 mi SE 10.4 mph - N/A Rain Light Rain
3:29 AM 33.8 °F 26.4 °F 33.8 °F 100% 29.34 in 9.0 mi SE 9.2 mph - N/A Rain Light Rain
3:34 AM 33.8 °F 23.9 °F 33.8 °F 100% 29.34 in 9.0 mi SE 15.0 mph 23.0 mph N/A Rain Light Rain
3:36 AM 33.8 °F 25.3 °F 33.8 °F 100% 29.34 in 9.0 mi SE 11.5 mph 23.0 mph N/A Rain Light Rain
3:41 AM 35.6 °F 27.1 °F 33.8 °F 93% 29.34 in 9.0 mi SE 12.7 mph 23.0 mph N/A Rain Light Rain
3:46 AM 33.8 °F 24.8 °F 33.8 °F 100% 29.34 in 9.0 mi SE 12.7 mph 18.4 mph N/A Rain Light Rain
3:53 AM 33.8 °F 26.4 °F 33.8 °F 100% 29.34 in 9.0 mi SE 9.2 mph 17.3 mph N/A Rain Light Rain
4:00 AM 33.8 °F 25.8 °F 33.8 °F 100% 29.34 in 9.0 mi SE 10.4 mph - N/A Rain Light Rain
4:08 AM 33.8 °F 27.0 °F 33.8 °F 100% 29.34 in 9.0 mi SSE 8.1 mph - N/A Rain Light Rain
4:10 AM 33.8 °F 25.8 °F 33.8 °F 100% 29.34 in 9.0 mi SE 10.4 mph - N/A Rain Light Rain
4:12 AM 33.8 °F 26.4 °F 33.8 °F 100% 29.34 in 8.0 mi SE 9.2 mph - N/A Rain Light Rain
4:16 AM 33.8 °F 26.4 °F 33.8 °F 100% 29.34 in 5.0 mi SE 9.2 mph - N/A Rain , Snow Light Snow
4:17 AM 33.8 °F 25.8 °F 33.8 °F 100% 29.34 in 5.0 mi SE 10.4 mph - N/A Snow Light Snow
4:21 AM 33.8 °F 26.4 °F 33.8 °F 100% 29.34 in 5.0 mi ESE 9.2 mph - N/A Snow Light Snow
4:22 AM 33.8 °F 25.8 °F 33.8 °F 100% 29.34 in 6.0 mi ESE 10.4 mph - N/A Snow Light Snow
4:23 AM 33.8 °F 25.3 °F 33.8 °F 100% 29.34 in 7.0 mi ESE 11.5 mph - N/A Snow Light Snow
4:25 AM 33.8 °F 25.8 °F 33.8 °F 100% 29.34 in 9.0 mi ESE 10.4 mph - N/A Rain , Snow Light Snow
4:28 AM 33.8 °F 24.3 °F 33.8 °F 100% 29.34 in 9.0 mi SE 13.8 mph - N/A Rain Light Rain
4:43 AM 33.8 °F 24.8 °F 33.8 °F 100% 29.34 in 9.0 mi SE 12.7 mph 19.6 mph N/A   Overcast
4:49 AM 33.8 °F 25.3 °F 33.8 °F 100% 29.34 in 9.0 mi SE 11.5 mph 17.3 mph N/A Rain Light Rain
5:00 AM 33.8 °F 25.8 °F 33.8 °F 100% 29.34 in 4.0 mi SE 10.4 mph - N/A Rain Light Rain
5:01 AM 33.8 °F 25.8 °F 33.8 °F 100% 29.34 in 4.0 mi SE 10.4 mph - N/A Rain Light Rain
5:02 AM 33.8 °F 25.8 °F 32.0 °F 93% 29.34 in 4.0 mi SE 10.4 mph - N/A   Mostly Cloudy
5:07 AM 33.8 °F 25.8 °F 33.8 °F 100% 29.33 in 7.0 mi ESE 10.4 mph - N/A Rain Light Rain
5:10 AM 33.8 °F 25.8 °F 33.8 °F 100% 29.33 in 9.0 mi ESE 10.4 mph - N/A Rain Light Rain
5:25 AM 33.8 °F 24.8 °F 32.0 °F 93% 29.33 in 9.0 mi ESE 12.7 mph - N/A   Mostly Cloudy
5:44 AM 33.8 °F 27.0 °F 32.0 °F 93% 29.33 in 5.0 mi SE 8.1 mph - N/A   Mostly Cloudy
5:45 AM 33.8 °F 26.4 °F 32.0 °F 93% 29.33 in 4.0 mi SE 9.2 mph - N/A Snow Light Snow
5:54 AM 33.8 °F 26.4 °F 33.8 °F 100% 29.33 in 5.0 mi SE 9.2 mph - N/A Snow Light Snow
5:55 AM 33.8 °F 26.4 °F 33.8 °F 100% 29.33 in 6.0 mi SE 9.2 mph - N/A Snow Light Snow
5:57 AM 33.8 °F 26.4 °F 33.8 °F 100% 29.33 in 9.0 mi SE 9.2 mph - N/A Rain , Snow Light Snow
5:59 AM 33.8 °F 26.4 °F 33.8 °F 100% 29.33 in 9.0 mi SE 9.2 mph - N/A Rain Light Rain
6:00 AM 33.8 °F 27.0 °F 32.0 °F 93% 29.33 in 9.0 mi SE 8.1 mph - N/A Rain Light Rain
6:04 AM 33.8 °F 25.3 °F 33.8 °F 100% 29.33 in 7.0 mi SE 11.5 mph - N/A Rain Light Rain
6:05 AM 33.8 °F 25.3 °F 32.0 °F 93% 29.33 in 6.0 mi SE 11.5 mph - N/A Rain Light Rain
6:06 AM 33.8 °F 25.8 °F 32.0 °F 93% 29.33 in 5.0 mi SE 10.4 mph - N/A Rain , Snow Light Snow
6:09 AM 33.8 °F 24.3 °F 32.0 °F 93% 29.33 in 3.0 mi SE 13.8 mph - N/A Snow Light Snow
6:11 AM 33.8 °F 25.3 °F 32.0 °F 93% 29.33 in 2.5 mi SE 11.5 mph - N/A Snow Light Snow
6:14 AM 33.8 °F 25.3 °F 32.0 °F 93% 29.33 in 3.0 mi SE 11.5 mph 17.3 mph N/A Snow Light Snow
6:18 AM 33.8 °F 25.3 °F 33.8 °F 100% 29.33 in 6.0 mi SE 11.5 mph - N/A Snow Light Snow
6:20 AM 33.8 °F 24.8 °F 33.8 °F 100% 29.32 in 9.0 mi SE 12.7 mph - N/A Rain , Snow Light Snow
6:23 AM 33.8 °F 25.8 °F 33.8 °F 100% 29.32 in 9.0 mi SE 10.4 mph 17.3 mph N/A Rain Light Rain
6:33 AM 33.8 °F 25.8 °F 33.8 °F 100% 29.32 in 9.0 mi SE 10.4 mph - N/A Rain Light Rain
6:34 AM 33.8 °F 25.8 °F 33.8 °F 100% 29.32 in 9.0 mi SE 10.4 mph - N/A   Mostly Cloudy
6:38 AM 33.8 °F 23.9 °F 33.8 °F 100% 29.32 in 9.0 mi SE 15.0 mph - N/A   Mostly Cloudy
6:43 AM 33.8 °F 24.8 °F 33.8 °F 100% 29.32 in 6.0 mi SE 12.7 mph 18.4 mph N/A   Mostly Cloudy
6:45 AM 33.8 °F 24.8 °F 33.8 °F 100% 29.32 in 5.0 mi SE 12.7 mph 18.4 mph N/A   Mostly Cloudy
6:51 AM 33.8 °F 24.8 °F 33.8 °F 100% 29.32 in 6.0 mi SE 12.7 mph - N/A   Overcast
6:53 AM 33.8 °F 24.8 °F 33.8 °F 100% 29.32 in 6.0 mi SE 12.7 mph - N/A   Overcast
6:58 AM 33.8 °F 26.4 °F 33.8 °F 100% 29.32 in 9.0 mi SE 9.2 mph 17.3 mph N/A Rain Light Rain
7:00 AM 33.8 °F 26.4 °F 33.8 °F 100% 29.32 in 9.0 mi SE 9.2 mph 17.3 mph N/A Rain Light Rain
7:01 AM 33.8 °F 25.8 °F 32.0 °F 93% 29.32 in 9.0 mi SE 10.4 mph - N/A Rain Light Rain
7:05 AM 33.8 °F 24.8 °F 32.0 °F 93% 29.32 in 9.0 mi SE 12.7 mph - N/A   Overcast
7:08 AM 33.8 °F 25.8 °F 32.0 °F 93% 29.32 in 9.0 mi SE 10.4 mph - N/A Rain Light Rain
7:12 AM 33.8 °F 24.3 °F 32.0 °F 93% 29.32 in 9.0 mi SE 13.8 mph - N/A Rain Light Rain
7:14 AM 33.8 °F 25.3 °F 32.0 °F 93% 29.32 in 9.0 mi SE 11.5 mph - N/A Rain Light Rain
7:24 AM 33.8 °F 26.4 °F 32.0 °F 93% 29.32 in 9.0 mi SE 9.2 mph - N/A   Mostly Cloudy
7:28 AM 33.8 °F 24.8 °F 32.0 °F 93% 29.32 in 9.0 mi ESE 12.7 mph - N/A Rain Light Rain
7:40 AM 33.8 °F 25.3 °F 33.8 °F 100% 29.32 in 6.0 mi SE 11.5 mph 17.3 mph N/A Rain Light Rain
7:42 AM 33.8 °F 25.3 °F 33.8 °F 100% 29.32 in 5.0 mi SE 11.5 mph - N/A Rain Light Rain
7:44 AM 33.8 °F 24.8 °F 33.8 °F 100% 29.32 in 5.0 mi SE 12.7 mph - N/A Rain , Snow Light Snow
7:47 AM 33.8 °F 23.9 °F 33.8 °F 100% 29.32 in 5.0 mi SE 15.0 mph - N/A Rain , Snow Light Snow
7:50 AM 33.8 °F 25.3 °F 33.8 °F 100% 29.32 in 8.0 mi SE 11.5 mph 18.4 mph N/A Rain , Snow Light Snow
7:52 AM 33.8 °F 25.8 °F 33.8 °F 100% 29.32 in 7.0 mi SSE 10.4 mph 18.4 mph N/A Rain Light Rain
7:53 AM 33.8 °F 24.8 °F 33.8 °F 100% 29.32 in 5.0 mi SE 12.7 mph 19.6 mph N/A   Overcast
7:55 AM 33.8 °F 25.3 °F 32.0 °F 93% 29.32 in 3.0 mi SE 11.5 mph 19.6 mph N/A Rain , Snow Light Snow
7:57 AM 33.8 °F 24.8 °F 33.8 °F 100% 29.32 in 2.2 mi SE 12.7 mph 19.6 mph N/A Rain , Snow Light Snow
7:59 AM 33.8 °F 23.9 °F 33.8 °F 100% 29.32 in 1.8 mi SE 15.0 mph - N/A Rain , Snow Light Snow
8:00 AM 33.8 °F 24.3 °F 33.8 °F 100% 29.32 in 1.8 mi SE 13.8 mph 19.6 mph N/A Snow Light Snow
8:03 AM 33.8 °F 23.9 °F 33.8 °F 100% 29.32 in 2.0 mi SE 15.0 mph - N/A Snow Light Snow
8:04 AM 33.8 °F 23.5 °F 33.8 °F 100% 29.32 in 2.2 mi SE 16.1 mph - N/A   Overcast
8:06 AM 33.8 °F 25.3 °F 33.8 °F 100% 29.32 in 3.0 mi SE 11.5 mph 18.4 mph N/A   Overcast
8:08 AM 33.8 °F 24.3 °F 33.8 °F 100% 29.32 in 5.0 mi SE 13.8 mph - N/A   Overcast
8:09 AM 33.8 °F 25.3 °F 33.8 °F 100% 29.32 in 8.0 mi SE 11.5 mph 18.4 mph N/A Rain Light Rain
8:13 AM 33.8 °F 24.3 °F 33.8 °F 100% 29.32 in 9.0 mi SE 13.8 mph - N/A Rain Light Rain
8:15 AM 33.8 °F 25.3 °F 33.8 °F 100% 29.32 in 9.0 mi SE 11.5 mph 17.3 mph N/A Rain Light Rain
8:18 AM 33.8 °F 25.3 °F 33.8 °F 100% 29.31 in 9.0 mi ESE 11.5 mph 17.3 mph N/A Rain Light Rain
8:20 AM 33.8 °F 24.8 °F 33.8 °F 100% 29.31 in 9.0 mi SE 12.7 mph - N/A   Overcast
8:26 AM 33.8 °F 24.8 °F 33.8 °F 100% 29.31 in 9.0 mi SE 12.7 mph - N/A Rain Light Rain
8:41 AM 33.8 °F 24.8 °F 33.8 °F 100% 29.31 in 9.0 mi ESE 12.7 mph 18.4 mph N/A Rain Light Rain
8:42 AM 33.8 °F 24.8 °F 33.8 °F 100% 29.31 in 9.0 mi ESE 12.7 mph 18.4 mph N/A   Overcast
8:43 AM 33.8 °F 24.3 °F 33.8 °F 100% 29.31 in 9.0 mi ESE 13.8 mph 19.6 mph N/A   Overcast
8:50 AM 33.8 °F 24.3 °F 32.0 °F 93% 29.31 in 9.0 mi SE 13.8 mph 20.7 mph N/A Rain Light Rain
9:00 AM 33.8 °F 24.3 °F 32.0 °F 93% 29.31 in 9.0 mi SE 13.8 mph - N/A Rain Light Rain
9:01 AM 33.8 °F 24.3 °F 32.0 °F 93% 29.31 in 9.0 mi SE 13.8 mph - N/A   Mostly Cloudy
9:50 AM 33.8 °F 23.9 °F 33.8 °F 100% 29.32 in 9.0 mi SE 15.0 mph 23.0 mph N/A Rain Light Rain
9:56 AM 33.8 °F 25.3 °F 33.8 °F 100% 29.33 in 7.0 mi SE 11.5 mph 23.0 mph N/A Rain Light Rain
9:57 AM 33.8 °F 24.3 °F 33.8 °F 100% 29.33 in 5.0 mi SE 13.8 mph 21.9 mph N/A Rain , Snow Light Snow
10:01 AM 33.8 °F 23.5 °F 32.0 °F 93% 29.33 in 2.2 mi SE 16.1 mph 27.6 mph N/A Rain , Snow Light Snow
10:02 AM 33.8 °F 23.2 °F 32.0 °F 93% 29.33 in 2.2 mi SSE 17.3 mph 27.6 mph N/A Snow Light Snow
10:10 AM 33.8 °F 25.3 °F 33.8 °F 100% 29.33 in 3.0 mi South 11.5 mph 23.0 mph N/A Snow Light Snow
10:16 AM 33.8 °F 25.8 °F 32.0 °F 93% 29.33 in 6.0 mi SSE 10.4 mph 19.6 mph N/A Snow Light Snow
10:17 AM 33.8 °F 25.8 °F 32.0 °F 93% 29.33 in 6.0 mi SSE 10.4 mph 19.6 mph N/A Snow Light Snow
10:24 AM 33.8 °F 25.8 °F 32.0 °F 93% 29.33 in 9.0 mi SE 10.4 mph - N/A   Mostly Cloudy
10:29 AM 33.8 °F 25.3 °F 32.0 °F 93% 29.33 in 9.0 mi SE 11.5 mph - N/A   Overcast
10:32 AM 33.8 °F 25.3 °F 32.0 °F 93% 29.33 in 9.0 mi SE 11.5 mph - N/A Rain Light Rain
10:37 AM 33.8 °F 26.4 °F 33.8 °F 100% 29.33 in 9.0 mi SE 9.2 mph - N/A Rain Light Rain
10:41 AM 33.8 °F 25.3 °F 33.8 °F 100% 29.33 in 9.0 mi SE 11.5 mph - N/A   Overcast
10:54 AM 33.8 °F 24.8 °F 33.8 °F 100% 29.34 in 8.0 mi SE 12.7 mph - N/A Rain Light Rain
10:58 AM 33.8 °F 24.8 °F 32.0 °F 93% 29.34 in 5.0 mi SE 12.7 mph - N/A Rain Light Freezing Rain
11:00 AM 33.8 °F 25.3 °F 32.0 °F 93% 29.34 in 3.0 mi SE 11.5 mph - N/A Rain Light Freezing Rain
11:01 AM 33.8 °F 25.8 °F 32.0 °F 93% 29.34 in 3.0 mi SE 10.4 mph - N/A Rain , Snow Light Snow
11:03 AM 33.8 °F 24.8 °F 32.0 °F 93% 29.34 in 2.2 mi SE 12.7 mph - N/A Rain , Snow Light Snow
11:05 AM 33.8 °F 23.9 °F 32.0 °F 93% 29.34 in 1.8 mi SE 15.0 mph - N/A Rain , Snow Light Snow
11:06 AM 33.8 °F 23.5 °F 32.0 °F 93% 29.34 in 1.5 mi SE 16.1 mph - N/A Snow Light Snow
11:20 AM 33.8 °F 24.8 °F 32.0 °F 93% 29.34 in 2.2 mi ESE 12.7 mph 19.6 mph N/A Snow Light Snow
11:22 AM 33.8 °F 24.3 °F 32.0 °F 93% 29.34 in 3.0 mi ESE 13.8 mph - N/A Snow Light Snow
11:26 AM 33.8 °F 24.8 °F 32.0 °F 93% 29.33 in 9.0 mi ESE 12.7 mph - N/A Snow Light Snow
11:28 AM 33.8 °F 24.3 °F 32.0 °F 93% 29.33 in 9.0 mi ESE 13.8 mph - N/A Snow Light Snow
11:30 AM 33.8 °F 24.3 °F 32.0 °F 93% 29.33 in 9.0 mi SE 13.8 mph - N/A Rain , Snow Light Snow
11:34 AM 33.8 °F 23.5 °F 32.0 °F 93% 29.33 in 9.0 mi SE 16.1 mph - N/A Rain , Snow Light Snow
11:35 AM 33.8 °F 23.5 °F 32.0 °F 93% 29.33 in 9.0 mi SE 16.1 mph - N/A Rain Light Rain
11:36 AM 33.8 °F 23.9 °F 32.0 °F 93% 29.33 in 9.0 mi SE 15.0 mph - N/A Rain Light Rain
11:40 AM 33.8 °F 23.9 °F 32.0 °F 93% 29.33 in 9.0 mi SE 15.0 mph - N/A Rain Light Rain
11:42 AM 33.8 °F 23.9 °F 32.0 °F 93% 29.33 in 7.0 mi SE 15.0 mph - N/A Rain Light Rain
11:43 AM 33.8 °F 24.3 °F 32.0 °F 93% 29.33 in 6.0 mi SE 13.8 mph - N/A Rain , Snow Light Snow
11:44 AM 33.8 °F 24.3 °F 32.0 °F 93% 29.33 in 4.0 mi SE 13.8 mph - N/A Rain , Snow Light Snow
11:45 AM 33.8 °F 24.3 °F 32.0 °F 93% 29.33 in 4.0 mi SE 13.8 mph - N/A Snow Light Snow
11:48 AM 33.8 °F 24.3 °F 32.0 °F 93% 29.33 in 3.0 mi SE 13.8 mph - N/A Snow Light Snow
11:49 AM 33.8 °F 24.3 °F 32.0 °F 93% 29.33 in 2.2 mi ESE 13.8 mph - N/A Snow Light Snow
11:51 AM 33.8 °F 25.3 °F 32.0 °F 93% 29.33 in 1.5 mi ESE 11.5 mph 18.4 mph N/A Snow Light Snow
11:53 AM 33.8 °F 24.3 °F 32.0 °F 93% 29.33 in 1.0 mi ESE 13.8 mph - N/A Snow Light Snow
12:00 PM 33.8 °F 24.3 °F 32.0 °F 93% 29.33 in 1.0 mi ESE 13.8 mph - N/A Snow Light Snow
12:08 PM 33.8 °F 24.3 °F 32.0 °F 93% 29.32 in 2.0 mi ESE 13.8 mph - N/A Snow Light Snow
12:11 PM 33.8 °F 24.8 °F 32.0 °F 93% 29.32 in 1.8 mi ESE 12.7 mph - N/A Snow Light Snow
12:27 PM 32.0 °F 24.2 °F 32.0 °F 100% 29.32 in 2.0 mi ESE 9.2 mph - N/A Snow Light Snow
12:35 PM 32.0 °F 24.8 °F 32.0 °F 100% 29.32 in 3.0 mi East 8.1 mph - N/A Snow Light Snow
12:38 PM 32.0 °F 24.8 °F 32.0 °F 100% 29.32 in 3.0 mi ESE 8.1 mph - N/A Snow Light Snow
12:42 PM 32.0 °F 24.8 °F 32.0 °F 100% 29.32 in 3.0 mi ESE 8.1 mph - N/A Snow Light Snow
12:43 PM 32.0 °F 24.8 °F 32.0 °F 100% 29.32 in 2.2 mi ESE 8.1 mph - N/A Snow Light Snow
12:44 PM 32.0 °F 24.8 °F 32.0 °F 100% 29.32 in 1.8 mi SE 8.1 mph - N/A Snow Light Snow
12:46 PM 32.0 °F 24.8 °F 32.0 °F 100% 29.32 in 1.0 mi SE 8.1 mph - N/A Snow Light Snow
1:00 PM 32.0 °F 24.8 °F 32.0 °F 100% 29.31 in 0.8 mi SE 8.1 mph - N/A Snow Light Snow
1:09 PM 32.0 °F 26.4 °F 32.0 °F 100% 29.32 in 1.0 mi SE 5.8 mph - N/A Snow Light Snow
1:36 PM 32.0 °F - 32.0 °F 100% 29.31 in 0.6 mi Variable 2.3 mph - N/A Snow Light Snow
1:47 PM 32.0 °F 28.7 °F 32.0 °F 100% 29.30 in 2.0 mi NNE 3.5 mph - N/A Snow Light Snow
1:51 PM 32.0 °F 28.7 °F 32.0 °F 100% 29.30 in 3.0 mi East 3.5 mph - N/A Snow Light Snow
1:53 PM 32.0 °F 28.7 °F 32.0 °F 100% 29.30 in 4.0 mi East 3.5 mph - N/A Rain , Snow Light Snow
1:54 PM 32.0 °F 28.7 °F 32.0 °F 100% 29.30 in 6.0 mi ENE 3.5 mph - N/A Rain , Snow Light Snow
1:55 PM 32.0 °F 28.7 °F 32.0 °F 100% 29.30 in 7.0 mi ENE 3.5 mph - N/A Rain , Snow Light Snow
1:57 PM 32.0 °F 27.5 °F 32.0 °F 100% 29.30 in 7.0 mi ENE 4.6 mph - N/A Rain , Snow Light Snow
1:58 PM 32.0 °F 27.5 °F 32.0 °F 100% 29.30 in 9.0 mi ENE 4.6 mph - N/A Rain Light Rain
2:00 PM 32.0 °F 27.5 °F 32.0 °F 100% 29.30 in 9.0 mi NE 4.6 mph - N/A Rain Light Rain
2:05 PM 32.0 °F 27.5 °F 32.0 °F 100% 29.30 in 9.0 mi NE 4.6 mph - N/A Rain Light Rain
2:14 PM 32.0 °F 27.5 °F 32.0 °F 100% 29.29 in 9.0 mi ENE 4.6 mph - N/A   Overcast
2:43 PM 32.0 °F 26.4 °F 32.0 °F 100% 29.28 in 9.0 mi East 5.8 mph - N/A   Mostly Cloudy
3:00 PM 33.8 °F - 33.8 °F 100% 29.28 in 9.0 mi Variable 2.3 mph - N/A   Mostly Cloudy
3:55 PM 33.8 °F 30.8 °F 32.0 °F 93% 29.27 in 9.0 mi NNE 3.5 mph - N/A   Mostly Cloudy
4:00 PM 32.0 °F 27.5 °F 32.0 °F 100% 29.27 in 9.0 mi NNE 4.6 mph - N/A   Mostly Cloudy
5:00 PM 32.0 °F 26.4 °F 32.0 °F 100% 29.25 in 9.0 mi NE 5.8 mph - N/A   Overcast
6:00 PM 33.8 °F 27.0 °F 32.0 °F 93% 29.24 in 9.0 mi North 8.1 mph - N/A   Overcast
7:00 PM 32.0 °F 24.2 °F 32.0 °F 100% 29.24 in 9.0 mi North 9.2 mph - N/A   Overcast
8:00 PM 33.8 °F 27.0 °F 32.0 °F 93% 29.23 in 9.0 mi North 8.1 mph - N/A   Overcast
8:20 PM 33.8 °F 27.7 °F 33.8 °F 100% 29.23 in 9.0 mi North 6.9 mph - N/A Rain Light Rain
9:00 PM 33.8 °F 28.6 °F 33.8 °F 100% 29.22 in 9.0 mi North 5.8 mph - N/A Rain Light Rain
9:08 PM 32.0 °F 27.5 °F 32.0 °F 100% 29.22 in 9.0 mi North 4.6 mph - N/A Rain , Snow Light Snow
9:11 PM 32.0 °F 26.4 °F 32.0 °F 100% 29.22 in 9.0 mi North 5.8 mph - N/A Snow Light Snow
9:12 PM 32.0 °F 26.4 °F 32.0 °F 100% 29.22 in 9.0 mi North 5.8 mph - N/A Snow Light Snow
9:19 PM 33.8 °F 28.6 °F 32.0 °F 93% 29.22 in 9.0 mi North 5.8 mph - N/A Rain Light Rain
9:24 PM 33.8 °F 28.6 °F 32.0 °F 93% 29.22 in 9.0 mi North 5.8 mph - N/A Rain Light Rain
9:43 PM 33.8 °F 28.6 °F 32.0 °F 93% 29.21 in 9.0 mi North 5.8 mph - N/A Rain , Snow Light Snow
9:48 PM 33.8 °F 29.6 °F 32.0 °F 93% 29.21 in 9.0 mi North 4.6 mph - N/A Snow Light Snow
9:52 PM 33.8 °F 29.6 °F 32.0 °F 93% 29.21 in 9.0 mi North 4.6 mph - N/A Rain Light Rain
9:57 PM 32.0 °F 28.7 °F 32.0 °F 100% 29.21 in 9.0 mi NNE 3.5 mph - N/A Rain Light Rain
10:15 PM 32.0 °F 27.5 °F 32.0 °F 100% 29.21 in 9.0 mi NE 4.6 mph - N/A Rain Light Rain
10:23 PM 32.0 °F 27.5 °F 32.0 °F 100% 29.21 in 9.0 mi ENE 4.6 mph - N/A Rain Light Rain
10:47 PM 32.0 °F 28.7 °F 32.0 °F 100% 29.21 in 9.0 mi East 3.5 mph - N/A   Overcast
11:00 PM 32.0 °F 27.5 °F 32.0 °F 100% 29.21 in 9.0 mi ENE 4.6 mph - N/A   Mostly Cloudy